GFSFLT2_con_lapse57_210.txt.gz
Lapse_Rate
6.1 6.2 5.8 5.4 5.4 5.2 5.0 5.0 4.8 5.1 5.1 5.1 5.3 5.2 5.2 5.1 5.1 5.5 5.8 5.9 5.8 5.9 6.0 6.2 6.2 6.3 6.4
6.1 6.0 5.7 5.6 5.5 5.4 5.4 5.4 5.5 5.5 5.5 5.4 5.4 5.4 5.5 5.6 5.7 5.9 5.9 5.8 5.8 6.0 6.2 6.3 6.3 6.3 6.1
6.3 6.1 5.9 6.0 5.7 5.8 5.7 5.7 5.5 5.5 5.5 5.5 5.8 6.0 6.0 5.9 5.9 5.9 5.9 6.3 6.1 6.1 6.3 6.3 6.5 6.4 6.4
6.3 6.0 6.1 6.0 5.8 6.0 5.9 5.8 5.7 5.6 5.6 5.7 5.9 6.1 6.2 6.2 6.2 6.0 6.1 6.2 6.3 6.4 6.4 6.4 6.4 6.1 6.1
6.2 6.3 6.3 5.7 5.6 5.7 5.7 5.7 5.6 5.6 5.6 5.7 5.8 6.1 6.0 5.9 5.8 6.0 6.2 6.3 6.3 6.4 6.3 6.1 5.9 5.9 5.8
6.4 6.0 5.5 5.4 5.6 5.6 5.6 5.6 5.6 5.7 5.6 5.6 5.5 5.5 5.8 6.0 6.2 6.0 5.9 6.0 6.2 6.1 6.0 6.0 6.0 5.9 5.6
6.0 5.7 5.6 5.6 5.7 5.7 5.7 5.6 5.6 5.7 5.8 6.0 6.0 6.1 6.1 5.9 5.7 5.5 5.8 6.1 6.2 6.1 6.0 5.9 5.7 5.6 5.4
5.7 5.7 5.7 5.6 5.7 5.5 5.3 5.2 5.2 5.3 5.5 5.7 5.6 5.8 5.6 5.5 5.5 5.6 5.9 5.9 6.0 6.1 6.1 5.8 5.6 5.4 5.3
5.7 5.6 5.5 5.4 5.3 5.3 5.3 5.3 5.4 5.3 5.4 6.0 5.9 5.8 5.5 5.2 5.7 5.8 5.6 5.8 6.0 5.9 5.8 5.6 5.4 5.3 5.2
5.1 4.9 5.2 5.2 5.2 5.5 5.5 5.6 5.6 5.7 5.7 5.7 5.6 5.5 5.8 5.8 5.4 5.1 5.1 5.5 5.6 5.6 5.5 5.2 5.1 5.1 5.0
5.3 5.3 5.2 5.6 5.6 5.6 5.6 5.6 5.4 5.3 5.4 5.5 5.6 5.7 5.8 5.7 5.8 5.3 5.2 5.2 5.0 5.0 4.8 4.8 4.8 4.6 4.5
5.2 5.4 5.4 5.4 5.4 5.2 5.3 5.4 5.2 5.1 5.3 5.6 5.7 5.6 5.5 5.5 5.6 5.6 5.4 5.3 5.3 5.2 4.9 4.8 4.7 4.5 4.2
5.3 5.3 5.1 4.8 4.8 4.8 4.6 4.8 5.0 5.1 5.1 5.0 4.9 4.8 4.8 4.9 5.0 5.4 5.3 5.7 5.3 4.9 4.8 4.7 4.6 4.4 4.4
4.6 4.2 4.1 4.3 4.2 4.3 4.5 4.5 4.6 4.1 4.1 4.1 4.4 4.5 4.5 4.5 4.6 4.7 4.4 4.4 4.7 4.6 4.7 4.8 4.7 4.6 4.6
3.9 3.9 4.1 4.2 4.3 4.4 4.4 4.4 4.4 4.5 4.4 4.1 3.9 3.7 3.7 3.9 4.2 4.1 4.3 4.2 4.0 4.2 4.3 4.5 4.7 4.7 4.8
4.2 4.3 4.3 4.4 4.5 4.5 4.2 4.0 4.0 3.9 4.0 3.9 3.7 3.8 3.9 4.1 4.1 4.5 4.7 4.4 4.4 4.4 4.2 4.3 4.9 5.4 5.3
4.4 4.5 4.4 4.3 4.0 3.8 3.7 3.6 3.7 3.7 3.8 3.6 3.5 3.5 3.9 4.5 5.0 5.4 4.7 4.7 4.6 4.8 4.9 5.0 5.3 5.5 5.8

GFSFLT2_con_lapse57_213.txt.gz
Lapse_Rate
6.2 6.0 6.1 6.0 6.1 5.9 5.8 5.5 5.2 5.1 5.2 5.0 5.1 5.2 5.1 4.8 4.7 4.9 5.0 5.5 5.4 5.3 5.3 5.5 5.7 5.7 6.0
6.4 6.2 6.0 5.9 6.0 6.0 6.0 5.7 5.4 5.3 5.5 5.6 5.2 5.1 5.0 4.9 5.1 5.1 5.3 5.5 5.5 5.5 5.7 5.9 5.9 5.9 5.7
6.5 6.4 6.3 6.3 6.0 5.6 5.9 5.6 5.6 5.6 5.6 5.3 5.1 5.1 5.1 5.3 5.5 5.6 5.7 5.7 5.6 5.8 5.8 5.8 6.0 6.1 6.4
6.7 6.5 6.4 6.3 6.2 6.2 6.1 5.7 5.6 5.5 5.6 5.6 5.6 5.6 5.6 5.6 5.6 5.8 5.9 5.9 5.9 6.1 6.2 6.3 6.3 6.4 6.4
6.4 6.5 6.1 6.2 6.1 6.1 5.8 5.8 5.7 5.7 5.7 5.6 5.5 5.6 5.7 5.7 5.8 6.0 6.2 6.3 6.2 6.1 6.0 5.9 6.0 6.2 6.1
6.4 6.4 6.2 6.3 6.1 6.0 5.5 5.6 5.6 5.8 5.8 5.7 5.7 5.7 5.7 5.8 5.8 5.8 5.9 5.8 5.9 5.9 5.7 5.9 6.0 6.0 6.0
6.2 6.3 6.2 6.0 5.9 5.5 5.5 5.8 5.7 5.5 5.5 5.7 5.5 5.4 5.3 5.3 5.5 5.6 5.7 5.7 5.5 5.6 5.7 5.9 6.0 6.0 6.0
6.1 6.0 6.0 5.9 5.6 5.4 5.5 5.5 5.5 5.4 5.5 5.5 5.4 5.4 5.4 5.6 5.7 5.7 5.6 5.6 5.5 5.8 5.8 5.7 5.7 5.8 5.9
6.0 5.9 5.7 5.6 5.5 5.4 5.3 5.3 5.3 5.3 5.4 5.5 5.5 5.5 5.3 5.2 5.5 5.7 5.6 5.6 5.5 5.4 5.4 5.4 5.4 5.5 5.8
5.5 5.5 5.4 5.3 5.3 5.3 5.3 5.3 5.2 5.4 5.4 5.5 5.6 5.7 5.8 5.9 5.7 5.4 5.3 5.3 5.1 5.1 5.1 5.1 5.0 5.2 5.5
5.2 5.3 5.2 5.1 5.1 5.1 5.3 5.3 5.5 5.5 5.5 5.5 5.6 5.7 5.7 5.6 5.7 5.1 5.0 4.8 4.5 4.5 4.4 4.5 4.9 5.2 5.3
5.0 5.1 5.1 5.1 5.2 5.2 5.2 5.1 4.9 4.9 5.1 5.3 5.4 5.4 5.3 5.4 5.4 5.5 5.0 4.8 4.7 4.7 4.6 4.8 4.9 4.7 4.7
5.1 5.2 5.3 5.1 4.8 4.7 4.8 4.6 4.6 4.6 4.6 4.7 4.8 4.9 4.8 4.8 4.9 5.3 5.1 5.4 5.2 5.0 4.9 5.0 4.9 4.9 4.8
5.1 4.9 4.7 4.6 4.6 4.4 4.3 4.4 4.4 4.4 4.3 4.2 4.4 4.4 4.3 4.2 4.2 4.3 4.4 4.6 4.8 4.9 4.9 4.9 4.7 4.8 4.8
4.5 4.3 4.3 4.2 4.3 4.3 4.5 4.3 4.2 4.0 4.0 3.9 3.8 3.7 3.7 3.8 4.0 3.9 3.8 3.6 3.6 3.8 4.0 4.3 4.5 4.5 4.4
4.1 4.0 4.1 4.2 4.2 4.1 4.0 3.9 3.8 3.7 4.0 4.1 3.8 3.5 3.4 3.5 3.4 3.7 3.9 3.9 4.1 4.1 4.0 4.1 4.7 5.1 4.7
4.2 4.2 4.1 4.1 4.1 4.1 3.9 3.7 3.7 3.9 3.9 3.7 3.6 3.5 3.6 3.9 4.2 4.5 4.4 4.7 4.8 4.8 4.7 4.8 5.0 5.3 5.2

GFSFLT2_con_lapse57_216.txt.gz
Lapse_Rate
6.2 6.1 6.2 6.2 6.3 6.3 6.2 6.1 6.0 5.9 5.9 5.8 5.2 5.3 5.3 5.1 5.1 5.3 4.9 5.5 5.2 5.1 5.3 5.2 5.3 5.4 5.2
6.1 6.1 6.1 6.4 6.2 6.1 5.8 5.9 6.0 5.9 5.7 5.7 5.4 5.6 5.7 5.5 5.4 5.0 5.0 5.2 5.1 5.2 5.3 5.4 5.5 5.7 5.8
6.4 6.4 6.4 6.4 6.6 6.4 6.3 6.1 6.1 6.1 5.9 5.7 5.6 5.8 5.7 5.5 5.4 5.4 5.3 5.3 5.3 5.6 5.8 5.8 5.9 6.0 5.9
6.6 6.4 6.6 6.7 6.7 6.5 6.4 6.5 6.0 6.0 5.9 5.9 5.8 5.8 5.7 5.6 5.5 5.6 5.5 5.6 5.6 5.8 5.9 5.9 6.0 5.9 6.0
6.5 6.7 6.4 6.4 6.5 6.5 6.2 6.2 6.2 6.2 6.0 5.8 5.6 5.5 5.6 5.6 5.6 5.4 5.4 5.4 5.4 5.4 5.5 5.5 5.7 5.9 6.1
6.4 6.6 6.4 6.6 6.3 6.2 6.2 6.3 6.2 5.8 5.6 5.5 5.4 5.4 5.6 5.6 5.6 5.7 5.6 5.5 5.5 5.5 5.6 5.6 5.7 5.7 5.7
6.4 6.4 6.3 6.2 6.2 6.4 6.2 5.9 5.6 5.5 5.5 5.6 5.5 5.4 5.4 5.3 5.5 5.6 5.6 5.6 5.7 5.7 5.6 5.4 5.4 5.5 5.7
6.3 6.2 6.3 6.2 6.1 6.0 5.8 5.6 5.6 5.6 5.5 5.5 5.4 5.3 5.4 5.5 5.6 5.6 5.6 5.5 5.4 5.3 5.3 5.4 5.6 5.6 5.7
6.4 6.2 5.9 5.8 5.9 5.8 5.8 5.5 5.4 5.4 5.3 5.2 5.2 5.3 5.3 5.3 5.4 5.4 5.5 5.6 5.6 5.5 5.5 5.5 5.5 5.5 5.7
5.3 5.7 5.7 5.6 5.5 5.4 5.2 5.1 5.2 5.2 5.0 5.0 5.1 5.1 5.3 5.3 5.2 5.2 5.3 5.4 5.4 5.4 5.3 5.2 5.2 5.2 5.4
5.0 5.0 5.0 5.1 5.0 5.0 5.1 5.2 5.1 5.0 5.0 5.0 5.1 5.1 5.3 5.3 5.6 5.3 5.2 5.0 4.9 4.8 4.4 4.3 4.4 4.7 4.9
4.9 4.9 5.0 5.1 5.1 5.1 5.1 5.0 4.8 4.8 4.8 4.7 4.8 5.0 5.2 5.4 5.3 5.3 4.7 4.5 4.4 4.3 4.2 4.3 4.4 4.4 4.4
4.9 4.9 4.9 5.0 4.8 4.5 4.5 4.7 4.5 4.5 4.6 4.6 4.6 4.7 4.8 4.6 4.7 5.0 4.9 5.1 4.9 4.6 4.6 4.7 4.7 4.7 4.7
4.9 4.7 4.5 4.4 4.6 4.4 4.5 4.5 4.5 4.6 4.3 4.1 4.1 4.2 4.3 4.3 4.4 4.6 4.3 4.4 4.4 4.3 4.4 4.5 4.4 4.5 4.6
4.5 4.4 4.4 4.4 4.3 4.3 4.3 4.4 4.3 4.1 3.9 3.6 3.6 3.9 3.9 3.9 3.9 3.8 3.8 3.9 3.7 3.8 3.9 4.0 4.2 4.0 3.9
4.6 4.5 4.3 4.3 4.3 4.3 4.2 4.1 4.0 3.9 3.7 3.6 3.6 3.7 3.8 4.0 3.8 3.7 3.7 3.4 3.5 3.8 3.9 3.9 4.4 4.9 4.7
4.2 4.2 4.1 4.1 4.0 4.0 3.9 3.8 3.7 3.8 3.9 3.6 3.6 3.5 3.3 3.4 3.6 4.0 3.9 4.2 4.5 4.8 4.5 4.7 5.1 5.5 5.4

GFSFLT2_con_lapse57_222.txt.gz
Lapse_Rate
6.3 6.1 6.0 6.0 6.0 6.0 5.9 6.0 5.7 5.7 5.6 5.4 5.5 5.9 5.9 6.0 5.8 5.7 5.8 5.7 5.5 5.4 5.2 5.3 5.3 5.2 5.4
6.3 6.3 6.2 6.2 6.0 6.2 6.3 6.0 6.0 5.6 5.6 5.6 5.8 5.9 6.1 5.9 6.0 6.0 6.0 5.8 5.7 5.6 5.4 5.4 5.6 5.2 5.3
6.4 6.2 6.2 6.3 6.2 6.3 6.4 6.2 6.1 6.0 5.9 6.0 5.9 6.3 6.2 5.9 6.0 6.1 6.0 5.6 5.7 5.6 5.6 5.3 5.4 5.4 5.5
6.6 6.6 6.5 6.5 6.3 6.6 6.8 6.5 6.3 6.0 6.0 5.9 6.2 6.1 6.2 6.0 6.1 6.0 5.8 5.5 5.8 5.8 5.7 5.7 5.6 5.5 5.4
6.3 6.2 6.5 6.6 6.4 6.5 6.3 6.4 6.2 6.2 6.3 6.4 6.4 6.3 6.2 6.1 6.0 5.9 5.2 5.7 5.8 5.7 5.6 5.6 5.6 5.4 5.3
6.5 6.6 6.4 6.5 6.4 6.2 6.4 6.4 6.5 6.4 6.3 6.4 6.4 6.5 6.2 6.2 5.7 5.1 5.3 5.6 5.6 5.6 5.5 5.2 5.3 5.4 5.3
6.7 6.6 6.5 6.5 6.3 6.4 6.3 6.4 6.4 6.3 6.2 6.3 6.1 6.0 5.9 5.3 4.8 5.4 5.5 5.4 5.5 5.4 5.3 5.4 5.5 5.5 5.6
6.6 6.5 6.5 6.5 6.5 6.5 6.4 6.2 6.2 6.0 5.9 5.8 5.5 5.0 5.2 5.3 5.3 5.2 5.2 5.3 5.2 5.2 5.3 5.3 5.3 5.4 5.4
6.5 6.3 6.3 6.2 6.2 5.9 5.8 5.8 5.7 5.3 4.9 4.8 5.2 5.2 5.1 5.2 5.3 5.3 5.2 5.1 5.1 5.1 5.2 5.2 5.2 5.2 5.3
6.1 6.2 6.2 6.3 5.9 5.3 5.0 4.7 5.1 5.3 5.2 5.1 5.1 5.1 5.1 5.1 4.9 4.8 4.7 4.8 5.1 5.1 5.2 5.2 5.2 5.2 5.2
5.4 5.4 5.4 5.2 5.2 5.1 5.1 5.1 5.1 5.0 4.9 4.9 4.9 4.9 4.8 4.9 4.7 4.5 4.5 4.7 4.7 4.8 4.8 4.7 4.8 4.8 4.9
5.3 5.3 5.2 5.2 5.1 5.0 5.0 4.9 4.9 4.9 4.8 4.8 4.8 4.8 4.7 4.6 4.5 4.4 4.2 4.2 4.4 4.5 4.5 4.5 4.5 4.3 4.2
5.1 5.1 5.1 5.0 5.0 5.0 5.0 4.8 4.7 4.7 4.7 4.6 4.4 4.4 4.3 4.3 4.3 4.4 4.4 4.6 4.6 4.4 4.3 4.1 4.1 4.0 4.0
5.2 5.3 5.3 5.3 5.2 4.9 4.8 4.7 4.6 4.5 4.4 4.3 4.3 4.2 4.1 4.1 4.0 4.2 4.1 4.1 4.2 4.1 4.0 4.0 4.0 4.0 4.2
5.1 5.0 4.9 4.8 4.8 4.7 4.6 4.5 4.4 4.4 4.3 4.2 4.1 4.0 4.0 3.9 3.9 4.0 4.0 4.0 3.9 3.7 3.8 4.0 4.2 4.2 4.4
4.7 4.7 4.7 4.6 4.6 4.5 4.4 4.4 4.3 4.2 4.1 3.9 3.9 3.8 3.8 4.0 4.0 4.0 4.1 4.0 4.0 4.0 4.2 4.1 4.5 4.9 4.7
4.6 4.5 4.4 4.3 4.3 4.3 4.2 4.2 4.1 4.1 4.0 3.9 4.0 3.8 3.8 4.1 4.4 4.6 5.0 5.0 5.0 5.2 5.2 5.3 5.3 5.7 5.6

GFSFLT2_con_lapse57_225.txt.gz
Lapse_Rate
6.4 6.6 6.3 5.9 6.0 5.9 6.0 6.1 6.1 6.2 6.0 5.8 6.2 5.7 5.5 5.8 5.8 5.8 5.9 5.8 5.6 5.5 5.8 5.9 5.9 5.5 5.5
6.5 6.4 6.2 6.5 6.1 6.1 6.0 6.0 6.1 6.2 6.2 5.8 5.7 6.0 5.8 5.4 5.7 5.8 5.9 5.9 6.0 6.0 5.9 5.7 5.9 5.9 5.5
6.7 6.2 6.5 6.4 6.3 6.2 6.2 6.1 6.1 6.2 6.3 6.2 5.8 5.5 5.6 5.5 5.7 5.8 5.7 5.5 5.5 5.8 5.9 5.9 5.6 5.7 5.8
6.7 6.2 6.2 6.2 6.2 6.3 6.2 6.2 6.2 6.3 6.1 6.3 6.0 6.1 5.9 5.8 5.7 5.6 5.8 5.8 5.8 5.9 5.8 5.8 5.5 5.8 6.0
6.3 6.3 6.4 6.3 6.5 6.4 6.4 6.4 6.1 6.3 6.5 6.3 6.3 6.4 6.2 6.0 5.9 5.9 6.0 6.0 6.1 6.0 5.9 5.3 5.6 5.7 5.7
6.4 6.4 6.4 6.5 6.3 6.3 6.3 6.3 6.4 6.3 6.3 6.4 6.4 6.3 6.3 6.1 6.2 6.3 6.2 6.1 6.0 5.5 5.3 5.5 5.7 5.5 5.4
6.6 6.5 6.5 6.4 6.4 6.3 6.2 6.4 6.4 6.0 6.2 6.2 6.2 6.2 6.1 6.2 6.0 5.9 5.9 5.7 5.2 5.0 5.4 5.5 5.4 5.4 5.3
6.5 6.5 6.6 6.6 6.6 6.5 6.4 6.5 6.3 6.1 6.1 6.1 6.1 5.9 5.7 5.7 5.5 5.2 4.7 4.8 5.0 5.2 5.2 5.2 5.3 5.3 5.4
6.2 6.3 6.3 6.4 6.4 6.4 6.4 6.4 6.2 6.0 5.8 5.7 5.6 5.4 5.2 4.9 4.7 4.7 4.9 5.0 5.0 5.1 5.1 5.1 5.1 5.2 5.2
6.1 6.2 6.1 6.2 6.2 6.2 6.0 5.8 5.8 5.8 5.6 5.3 4.9 4.8 4.9 4.9 4.9 4.9 4.8 4.7 4.7 4.8 4.9 4.9 4.9 5.0 5.1
5.9 6.0 6.0 5.7 5.6 5.6 5.5 5.4 5.3 5.2 5.1 5.1 5.0 5.0 4.9 4.8 4.7 4.7 4.6 4.6 4.5 4.4 4.4 4.5 4.5 4.6 4.6
5.3 5.4 5.4 5.4 5.4 5.3 5.2 5.2 5.1 4.9 4.9 4.9 4.8 4.8 4.8 4.6 4.5 4.4 4.2 4.2 4.2 4.2 4.3 4.4 4.3 4.3 4.2
5.3 5.3 5.3 5.3 5.2 5.1 5.0 4.9 4.9 4.8 4.6 4.5 4.4 4.3 4.3 4.3 4.3 4.3 4.3 4.3 4.3 4.4 4.3 4.3 4.2 4.2 4.1
5.3 5.3 5.2 5.1 4.9 4.7 4.6 4.4 4.3 4.3 4.3 4.4 4.4 4.4 4.4 4.3 4.3 4.3 4.2 4.2 4.3 4.2 4.1 4.2 4.3 4.2 4.2
5.2 5.1 5.0 4.9 4.8 4.7 4.6 4.5 4.5 4.5 4.5 4.4 4.3 4.2 4.1 4.0 4.0 4.0 3.9 4.0 3.8 3.5 3.6 3.8 4.0 4.1 4.4
4.9 4.8 4.7 4.6 4.6 4.5 4.5 4.4 4.2 4.1 4.0 3.9 3.8 3.8 3.8 3.9 3.7 3.7 3.9 3.9 3.9 4.0 4.2 4.1 4.5 5.2 5.4
4.6 4.6 4.6 4.5 4.5 4.3 4.2 4.2 4.2 4.1 4.0 4.0 4.0 3.9 3.8 3.9 4.2 4.3 4.3 4.6 4.4 4.4 4.5 4.5 4.7 5.4 5.4

GFSFLT2_con_lapse57_228.txt.gz
Lapse_Rate
5.9 6.0 6.1 6.3 6.6 6.6 6.1 5.9 5.8 6.0 6.1 6.0 6.1 6.0 5.7 5.8 6.0 5.8 5.7 6.0 6.3 5.9 5.2 5.4 5.7 5.8 5.3
6.1 6.2 6.4 6.2 6.7 6.3 6.2 6.5 6.3 6.2 6.2 6.1 6.2 6.4 6.2 5.7 5.7 6.0 6.0 6.2 6.5 6.0 5.6 5.7 5.6 5.4 5.4
6.1 6.4 6.7 6.6 6.9 6.0 6.0 6.4 6.2 6.5 6.3 6.1 6.1 6.3 6.1 5.7 5.9 5.6 6.1 5.8 6.1 6.0 5.7 5.8 5.8 5.5 5.6
6.2 6.4 6.6 6.5 6.5 6.4 6.4 6.3 6.2 6.4 6.1 6.1 6.1 6.0 6.0 5.7 5.5 5.5 5.9 6.0 6.0 5.9 5.8 5.6 5.7 5.8 5.8
6.3 6.5 6.6 6.6 6.5 6.1 6.2 6.2 6.3 6.3 6.4 6.2 6.2 6.0 6.3 6.1 6.2 6.1 5.9 5.9 5.8 5.9 5.9 6.0 5.9 5.8 5.7
6.4 6.4 6.4 6.5 6.5 6.5 6.5 6.4 6.2 6.3 6.4 6.2 6.0 6.2 6.1 6.2 6.1 6.1 6.2 6.1 6.1 6.1 6.1 6.0 5.9 5.7 5.1
6.5 6.5 6.4 6.3 6.6 6.5 6.4 6.3 6.2 6.3 6.3 6.2 6.3 6.1 6.1 6.4 6.4 6.3 6.3 6.3 6.1 5.9 5.9 5.7 5.3 4.9 4.8
6.2 6.3 6.3 6.4 6.5 6.7 6.5 6.3 6.4 6.4 6.2 6.2 6.2 6.0 6.0 6.1 6.1 6.1 6.0 5.9 5.7 5.5 5.2 5.0 4.9 4.8 4.9
6.2 6.3 6.1 6.2 6.3 6.5 6.6 6.3 6.1 6.2 6.3 6.4 6.3 6.2 6.0 5.8 5.8 5.7 5.4 5.1 4.8 4.8 4.8 4.9 5.0 5.0 5.0
6.1 6.1 6.1 6.1 6.1 6.0 6.0 6.0 5.9 5.9 5.9 5.9 5.8 5.7 5.6 5.3 5.1 5.0 4.9 4.9 4.8 4.7 4.6 4.6 4.6 4.6 4.6
5.6 5.6 5.6 5.6 5.6 5.6 5.6 5.5 5.4 5.4 5.2 5.2 5.0 4.9 4.9 4.8 4.6 4.6 4.5 4.4 4.2 4.1 4.1 4.2 4.3 4.3 4.4
5.2 5.2 5.3 5.3 5.4 5.4 5.3 5.3 5.2 5.0 4.9 4.8 4.7 4.5 4.4 4.4 4.2 4.2 4.1 4.2 4.2 4.2 4.2 4.2 4.2 4.2 4.1
5.2 5.3 5.3 5.2 5.2 5.1 5.0 4.9 4.8 4.8 4.7 4.6 4.5 4.4 4.3 4.3 4.3 4.4 4.3 4.2 4.1 4.0 3.9 3.8 3.8 3.8 3.8
5.3 5.3 5.2 5.0 4.9 4.8 4.7 4.5 4.4 4.3 4.2 4.2 4.2 4.2 4.1 4.0 4.0 4.0 3.9 3.9 4.0 3.8 3.7 3.8 3.9 4.0 4.0
5.2 5.1 5.0 4.8 4.7 4.6 4.5 4.4 4.4 4.3 4.2 4.1 4.1 4.0 4.0 3.9 4.0 4.0 3.9 3.9 3.7 3.7 3.7 3.7 3.7 3.8 3.9
5.1 5.0 4.9 4.9 4.8 4.6 4.5 4.4 4.3 4.2 4.2 4.1 4.1 4.1 4.1 4.2 3.9 3.9 3.8 3.6 3.6 3.6 3.7 3.7 4.0 4.5 4.1
5.0 4.9 4.8 4.6 4.5 4.3 4.3 4.2 4.2 4.1 4.1 4.1 4.0 4.0 3.9 4.0 4.3 4.0 3.9 4.2 4.1 4.2 4.1 4.0 3.9 4.2 4.5

GFSFLT2_con_lapse57_231.txt.gz
Lapse_Rate
5.7 6.0 6.1 6.1 6.1 6.1 6.2 6.4 6.4 6.1 6.3 5.9 6.1 6.1 6.0 5.9 6.1 5.9 5.6 5.9 5.9 5.9 5.9 6.0 5.7 5.8 5.9
5.8 5.8 6.0 6.1 6.4 6.6 6.8 6.8 6.6 6.5 6.5 6.3 6.4 6.4 6.6 6.2 6.2 6.0 6.0 5.8 6.0 6.1 5.9 6.0 5.9 5.8 5.8
6.1 5.6 5.7 6.1 6.6 6.9 7.0 6.7 6.8 6.4 6.2 6.5 6.4 6.5 6.4 6.5 6.6 6.0 6.0 6.0 6.0 5.9 6.0 6.0 6.0 6.5 6.2
6.1 6.2 6.1 6.0 6.1 6.3 6.3 6.6 6.5 6.6 6.5 6.6 6.3 6.4 6.6 6.5 6.4 6.3 6.1 6.1 5.8 5.7 5.9 6.0 6.2 6.0 6.1
6.1 6.1 6.0 6.0 6.2 6.2 6.4 6.6 6.5 6.3 6.5 6.3 6.5 6.5 6.2 6.3 6.3 6.2 6.0 6.0 5.8 5.8 6.1 6.1 6.1 6.2 6.2
5.8 6.0 6.1 6.1 6.0 6.2 6.3 6.4 6.5 6.2 6.0 6.2 6.3 6.3 6.2 6.3 6.3 6.3 6.2 6.2 6.2 6.2 6.2 6.2 6.2 6.2 6.2
6.1 6.1 6.0 6.0 6.2 6.1 6.3 6.5 6.5 6.2 6.0 6.2 6.1 6.1 6.2 6.2 6.3 6.3 6.2 6.4 6.5 6.4 6.2 6.1 6.1 6.1 5.9
5.5 5.8 5.9 5.9 6.0 6.0 6.3 6.4 6.2 6.3 6.5 6.4 6.3 6.3 6.2 6.4 6.4 6.3 6.3 6.2 6.3 6.2 6.0 5.8 5.6 5.3 5.0
6.0 6.1 6.1 6.0 6.0 6.0 5.9 5.9 5.7 5.8 5.9 5.9 6.0 6.0 6.0 6.0 5.9 5.9 5.8 5.6 5.5 5.4 5.2 5.0 4.9 4.9 4.9
5.7 5.7 5.6 5.6 5.7 5.8 5.8 5.7 5.6 5.5 5.6 5.6 5.6 5.6 5.6 5.5 5.3 5.1 5.1 5.0 5.0 4.9 4.8 4.7 4.6 4.6 4.5
5.5 5.6 5.6 5.6 5.7 5.7 5.7 5.7 5.7 5.7 5.5 5.4 5.3 5.1 5.0 4.9 4.8 4.7 4.6 4.5 4.5 4.4 4.3 4.4 4.4 4.4 4.5
5.3 5.4 5.4 5.5 5.5 5.5 5.5 5.4 5.4 5.2 5.1 5.0 4.9 4.8 4.7 4.7 4.6 4.5 4.4 4.3 4.3 4.2 4.2 4.2 4.1 4.1 4.0
5.3 5.4 5.4 5.4 5.4 5.3 5.2 5.1 5.0 4.9 4.8 4.7 4.6 4.5 4.4 4.3 4.3 4.2 4.2 4.1 4.0 4.0 3.9 3.9 3.9 3.9 3.9
5.3 5.3 5.3 5.3 5.3 5.2 5.0 4.8 4.7 4.5 4.4 4.2 4.2 4.1 4.0 3.9 3.9 3.9 3.8 3.8 4.0 3.9 3.9 3.9 4.0 3.9 3.9
5.2 5.3 5.2 5.2 5.2 5.1 5.0 4.8 4.7 4.6 4.4 4.3 4.2 4.2 4.1 4.1 4.1 3.9 4.0 4.0 3.8 3.9 3.9 3.8 3.9 3.9 3.8
5.3 5.3 5.2 5.1 4.9 4.7 4.5 4.4 4.3 4.3 4.3 4.3 4.3 4.3 4.4 4.3 4.2 4.1 4.0 4.0 3.9 3.9 3.8 3.9 4.2 4.1 4.0
5.1 5.0 4.7 4.6 4.4 4.1 4.0 4.0 4.0 4.1 4.3 4.4 4.4 4.3 4.4 4.5 4.5 4.0 4.2 4.2 4.4 4.5 4.2 4.1 4.1 4.4 4.6